Homiel, Belarus

2:28 AM +03 on August 24, 2017 (GMT +0300)
Gomel

Weather History for UMGG - October, 2013

Change the Weather History Date:

Sunday, October 27, 2013

  Actual Average Record
Temperature  
Mean Temperature 54 °F -  
Max Temperature 59 °F 39 °F - ()
Min Temperature 50 °F 31 °F - ()
Degree Days  
Heating Degree Days 10    
Growing Degree Days 4 (Base 50)    
Moisture  
Dew Point 54 °F    
Average Humidity 95    
Maximum Humidity 100    
Minimum Humidity 87    
Precipitation  
Precipitation 0.00 in 0.06 in - ()
Sea Level Pressure  
Sea Level Pressure 29.91 in    
Wind  
Wind Speed 7 mph ()    
Max Wind Speed 13 mph    
Max Gust Speed 20 mph    
Visibility 2.6 miles    
Events Fog , Rain    
T = Trace of Precipitation, MM = Missing Value Source: Averaged Metar Reports

Daily Weather History Graph

Daily Weather History Graph

Search for Another Location

Airport or City:

Trip Planner

Search our weather history database for the weather conditions in past years. The results will help you decide how hot, cold, wet, or windy it might be!

Date:

Astronomy

Oct. 27, 2013 Rise Set
Actual Time 7:43 AM +03 5:35 PM +03
Civil Twilight 7:07 AM +03 6:11 PM +03
Nautical Twilight 6:27 AM +03 6:51 PM +03
Astronomical Twilight 5:47 AM +03 7:30 PM +03
Moon No Moon Rise 2:22 PM +03 (10/27)
Length of Visible Light 11h 03m
Length of Day
9h 52m
Waning Gibbous, 46% of the Moon is Illuminated
Oct 27
Waning Gibbous
Nov 3
New
Nov 10
First Quarter
Nov 17
Full
Nov 25
Last Quarter

Hourly Weather History & Observations

Time (+03) Temp. Dew Point Humidity Pressure Visibility Wind Dir Wind Speed Gust Speed Precip Events Conditions
12:00 AM 53 °F 51 °F 90% 29.94 in 2 mi South 6.7 mph - -   Mist
12:00 AM 53.6 °F 51.8 °F 94% 29.95 in 2.5 mi SSW 13.4 mph 20.1 mph N/A   Mostly Cloudy
1:00 AM 55.4 °F 53.6 °F 94% 29.92 in 2.5 mi SSW 11.2 mph 17.9 mph N/A   Mostly Cloudy
2:00 AM 53.6 °F 51.8 °F 94% 29.92 in 3.1 mi SW 13.4 mph - N/A   Mostly Cloudy
3:00 AM 54 °F 51 °F 87% 29.91 in 3 mi SSW 4.5 mph - -   Mist
3:00 AM 53.6 °F 51.8 °F 94% 29.92 in 3.1 mi SW 13.4 mph - N/A   Mostly Cloudy
4:00 AM 53.6 °F 51.8 °F 94% 29.92 in 3.1 mi WSW 11.2 mph - N/A   Mostly Cloudy
5:00 AM 53.6 °F 51.8 °F 94% 29.89 in 3.1 mi SW 8.9 mph - N/A   Mostly Cloudy
6:00 AM 52 °F 52 °F 98% 29.91 in 2 mi SW 2.2 mph - -   Mist
6:00 AM 53.6 °F 51.8 °F 94% 29.89 in 2.5 mi WSW 8.9 mph - N/A   Mostly Cloudy
6:30 AM 53.6 °F 51.8 °F 94% 29.89 in 2.2 mi WSW 8.9 mph - N/A Rain Light Rain
7:00 AM 53.6 °F 51.8 °F 94% 29.89 in - WSW 6.7 mph - N/A Rain Light Rain Showers
7:30 AM 53.6 °F 51.8 °F 94% 29.89 in 1.4 mi WSW 6.7 mph - N/A Rain Light Rain Showers
8:00 AM 53.6 °F 51.8 °F 94% 29.89 in 1.0 mi WSW 8.9 mph - N/A Rain Light Rain Showers
8:30 AM 53.6 °F 51.8 °F 94% 29.89 in 1.0 mi SSW 8.9 mph - N/A Rain Light Rain Showers
9:00 AM 52 °F 52 °F 100% 29.88 in 1 mi South 2.2 mph - - Rain Light Rain Showers
9:00 AM 53.6 °F 53.6 °F 100% 29.89 in 1.0 mi WSW 6.7 mph - N/A Rain Light Rain Showers
9:30 AM 53.6 °F 53.6 °F 100% 29.89 in 1.1 mi WSW 6.7 mph - N/A   Mostly Cloudy
10:00 AM 55.4 °F 53.6 °F 94% 29.89 in 1.2 mi West 8.9 mph - N/A   Overcast
10:13 AM 55.4 °F 53.6 °F 94% 29.89 in 1.1 mi West 8.9 mph - N/A   Overcast
10:30 AM 55.4 °F 53.6 °F 94% 29.89 in 1.2 mi West 8.9 mph - N/A   Overcast
11:00 AM 55.4 °F 55.4 °F 100% 29.92 in 1.7 mi West 8.9 mph - N/A   Overcast
11:30 AM 55.4 °F 55.4 °F 100% 29.92 in - West 8.9 mph - N/A   Overcast
12:00 PM 56 °F 55 °F 95% 29.91 in 3 mi SW 4.5 mph - -   Mist
12:00 PM 57.2 °F 55.4 °F 94% 29.92 in 4.3 mi West 8.9 mph - N/A   Overcast
12:30 PM 57.2 °F 55.4 °F 94% 29.92 in 5.0 mi West 8.9 mph - N/A   Overcast
1:00 PM 57.2 °F 55.4 °F 94% 29.92 in 5.6 mi West 8.9 mph - N/A   Overcast
1:30 PM 57.2 °F 55.4 °F 94% 29.92 in 5.6 mi West 8.9 mph - N/A   Overcast
2:00 PM 57.2 °F 55.4 °F 94% 29.92 in 5.0 mi West 8.9 mph - N/A   Overcast
2:30 PM 57.2 °F 55.4 °F 94% 29.92 in 4.3 mi West 8.9 mph - N/A   Overcast
3:00 PM 58 °F 55 °F 87% 29.91 in 4 mi WSW 2.2 mph - -   Mist
3:00 PM 59.0 °F 55.4 °F 88% 29.92 in 4.3 mi West 6.7 mph - N/A   Overcast
3:30 PM 59.0 °F 55.4 °F 88% 29.92 in 3.7 mi WSW 8.9 mph - N/A   Overcast
4:00 PM 59.0 °F 57.2 °F 94% 29.92 in 3.1 mi WSW 8.9 mph - N/A   Overcast
4:30 PM 59.0 °F 57.2 °F 94% 29.92 in 3.7 mi West 8.9 mph - N/A   Overcast
5:00 PM 57.2 °F 55.4 °F 94% 29.92 in 5.0 mi WSW 6.7 mph - N/A   Overcast
5:30 PM 57.2 °F 55.4 °F 94% 29.92 in 5.0 mi WSW 6.7 mph - N/A   Overcast
6:00 PM 57 °F 54 °F 88% 29.92 in 3 mi Calm Calm - -   Mist
6:00 PM 57.2 °F 53.6 °F 88% 29.92 in 4.3 mi WSW 6.7 mph - N/A   Overcast
6:30 PM 57.2 °F 53.6 °F 88% 29.92 in 3.7 mi SW 6.7 mph - N/A   Overcast
7:00 PM 55.4 °F 53.6 °F 94% 29.92 in 2.8 mi SW 6.7 mph - N/A   Mostly Cloudy
7:30 PM 55.4 °F 53.6 °F 94% 29.92 in 2.5 mi SSW 4.5 mph - N/A   Scattered Clouds
8:00 PM 53.6 °F 53.6 °F 100% 29.92 in - SSW 6.7 mph - N/A   Partly Cloudy
8:10 PM 53.6 °F 53.6 °F 100% 29.92 in 1.3 mi South 6.7 mph - N/A   Partly Cloudy
8:50 PM 53.6 °F 53.6 °F 100% 29.92 in 0.6 mi South 6.7 mph - N/A Fog Fog
9:00 PM 52 °F 52 °F 100% 29.90 in 0 mi Calm Calm - - Fog Heavy Fog
9:00 PM 53.6 °F 53.6 °F 100% 29.89 in 0.1 mi South 6.7 mph - N/A Fog Fog
10:00 PM 53.6 °F 53.6 °F 100% 29.89 in 0.1 mi South 6.7 mph - N/A Fog Fog
11:00 PM 53.6 °F 53.6 °F 100% 29.89 in 0.1 mi South 6.7 mph - N/A Fog Fog